Location: Jackson Park
(37.2862°N, 79.9123°W)
Time: 23:32:44
(UTC+00:00)

Transit 4A - Pass Details

Date: 19 May 2026
Orbit: 861 x 980 km, 66.8° (Epoch: 5 June)

Event Time Altitude Azimuth Distance (km) Brightness Sun altitude
Rises 10:53:04 0° 171° (S) 3,515 10.8 7.5°
Reaches altitude 10° 10:55:57 10° 158° (SSE) 2,599 10.3 8.0°
Maximum altitude 11:00:45 25° 106° (ESE) 1,788 10.5 8.9°
Drops below altitude 10° 11:05:40 10° 53° (NE) 2,678 12.0 9.9°
Sets 11:08:41 0° 41° (NE) 3,645 12.1 10.4°
